Preview of NWS' New Version of Forecast
This preview is not operational and should not be used for support decisions.

Regional Weather Roundup (RWR)

Issued by National Weather Service (NWS)

                            
000
ASCA42 TJSJ 210610
RWRPR 
PUERTO RICO/U.S. VIRGIN ISLANDS HOURLY WEATHER ROUNDUP
NATIONAL WEATHER SERVICE SAN JUAN PR
200 AM AST WED AUG 21 2019

PRZ001>002-007>008-010-210700-
PUERTO RICO
  
CITY           SKY/WX    TMP DP  RH WIND       PRES   REMARKS
SAN JUAN LMM   PTCLDY    81  75  83 CALM      30.03F                  
CEIBA          PTCLDY    81  75  83 E6        30.04F                  
$$

VIZ001>002-210700-
U.S. VIRGIN ISLANDS
  
CITY           SKY/WX    TMP DP  RH WIND       PRES   REMARKS
CHARLOTTE AMA  CLEAR     82  75  78 E7        30.01F                  
CHRISTIANSTED  CLEAR     79  73  83 NE8       30.02S                  
$$

HOURLY WEATHER ROUNDUP FOR THE NEWS MEDIA
  
CITY           SKY/WX    TMP DP  RH WIND       PRES   REMARKS
ORLANDO        FAIR      79  75  87 CALM      30.09F                  
NEW YORK       MOCLDY    76  76 100 S8        30.05                   
NEWARK         FAIR      77  71  82 S6        30.03S                  
CHICAGO        FAIR      68  64  87 W3        29.97F                  
HARTFORD       FAIR      64  61  90 CALM      30.05S                  
BOSTON         PTCLDY    70  61  73 S5        30.04R                  
DALLAS         CLEAR     88  70  55 S8        30.01S HX  93           
PHILADELPHIA   FAIR      78  73  84 SW10      30.03F                  
LOS ANGELES    PTCLDY    70  61  73 VRB3      29.87F                  
WASHINGTON DC  MOCLDY    70  67  90 S6        30.03F